Hourly Data Report for October 04, 2019

All times are specified in Local Standard Time (LST). Add 1 hour to adjust for Daylight Saving Time where and when it is observed.

ABBOTSFORD A
BRITISH COLUMBIA
Current Station Operator: NAVCAN

49°01'31.000" N
122°21'36.000" W
59.10 m
1100031
71108
YXX

Download Data

Hourly Data (October 2019)
Hourly Data Report for October 4, 2019
TIME Temp Definition
°C
Dew Point Definition
°C
Rel Hum Definition
%
Wind Dir Definition
10's deg

Wind Spd Definition
km/h
Visibility Definition
km
Stn Press Definition
kPa
Hmdx Definition


Wind Chill Definition


Weather Definition


00:00 9.3 8.3 93 3 8 24.1 100.91     LegendNANA
01:00 9.2 8.2 93 1 4 24.1 100.94     Mostly Cloudy
02:00 9.0 8.1 94 36 5 24.1 100.96     LegendNANA
03:00 9.0 8.2 94 2 8 24.1 100.98     LegendNANA
04:00 9.0 8.1 94 3 4 24.1 101.01     Cloudy
05:00 9.0 8.2 95 8 4 20.9 101.03     Rain Showers
06:00 8.9 8.3 96 3 10 24.1 101.07     Rain Showers
07:00 9.0 8.4 96 36 2 19.3 101.14     Rain Showers
08:00 9.3 8.6 95 2 12 19.3 101.16     LegendNANA
09:00 9.6 8.9 95 2 7 8.1 101.22     Rain Showers
10:00 9.8 9.0 94 5 8 12.9 101.28     Rain Showers
11:00 10.0 8.9 93 5 6 16.1 101.32     Rain Showers
12:00 10.1 8.9 92 7 3 8.1 101.37     Rain Showers
13:00 10.8 9.4 91 2 10 16.1 101.39     Rain Showers
14:00 11.1 9.4 89 1 8 16.1 101.42     LegendNANA
15:00 11.1 8.9 86 35 5 8.1 101.45     Drizzle
16:00 10.9 9.8 93 32 6 6.4 101.50     Rain Showers
17:00 10.5 9.7 95 36 8 6.4 101.50     Drizzle
18:00 10.0 9.4 96 35 5 6.4 101.51     Rain Showers
19:00 10.1 9.5 96 0 1 8.1 101.56     Rain Showers
20:00 10.3 9.7 96 25 5 11.3 101.63     LegendNANA
21:00 10.4 9.7 96 18 13 12.9 101.68     LegendNANA
22:00 10.2 9.6 96 21 8 16.1 101.73     Mostly Cloudy
23:00 10.0 9.4 96 22 7 16.1 101.75     LegendNANA

Notes on Data Quality.

Legend

  • E = Estimated
  • M = Missing
  • NA = Not Available
Date modified: